Location: Newark
(12.4436°N, 0.6167°W)
Time: 05:34:42
(UTC+00:00)

Vanguard 1 Rocket - Visible Passes

Search period start: 13 December 2019 00:00
Search period end: 23 December 2019 00:00
Orbit: 650 x 4226 km, 34.3° (Epoch: 11 December)

Date Brightness Start Highest point End Pass type
(mag) Time Alt. Az. Time Alt. Az. Time Alt. Az.
13 Dec 8.1 04:55:58 22° WSW 04:56:59 23° SW 05:00:45 10° SSE visible
13 Dec 10.6 17:20:03 10° SW 17:46:51 84° SE 18:06:01 10° ENE visible
13 Dec 10.0 19:56:34 10° W 20:19:09 47° NNW 20:24:19 39° N visible
13 Dec 11.2 22:39:41 10° WNW 22:41:37 13° NW 22:41:37 13° NW visible
14 Dec 8.8 03:48:56 23° SE 03:48:56 23° SE 03:50:36 10° SE visible
14 Dec 10.3 18:38:38 10° WSW 19:04:33 65° NNW 19:17:11 24° NE visible
14 Dec 10.5 21:20:16 10° WNW 21:34:28 30° NNW 21:34:28 30° NNW visible
15 Dec 8.8 04:59:12 12° SW 05:00:05 13° SW 05:02:08 10° S visible
15 Dec 10.7 17:22:34 10° SW 17:49:21 85° NW 18:08:57 10° NE visible
15 Dec 10.2 20:00:29 10° W 20:22:18 42° NNW 20:27:19 36° N visible
15 Dec 11.3 22:43:28 10° NW 22:44:36 12° NW 22:44:36 12° NW visible
16 Dec 9.0 03:52:09 17° SSE 03:52:09 17° SSE 03:53:18 10° SSE visible
16 Dec 10.4 18:41:57 10° WSW 19:07:22 56° NNW 19:20:08 23° NE visible
16 Dec 10.6 21:24:31 10° WNW 21:37:26 27° NNW 21:37:26 27° NNW visible
17 Dec 10.7 17:25:23 10° WSW 17:51:55 74° NW 18:11:50 10° NE visible
17 Dec 10.3 20:04:37 10° W 20:25:41 38° NNW 20:30:15 33° N visible
17 Dec 11.3 22:46:53 10° NW 22:47:32 11° NW 22:47:32 11° NW visible
18 Dec 9.4 03:55:20 11° S 03:55:20 11° S 03:55:30 10° S visible
18 Dec 10.5 18:45:35 10° W 19:10:24 50° NNW 19:23:03 22° NE visible
18 Dec 10.7 21:28:36 10° WNW 21:40:20 26° NNW 21:40:20 26° NNW visible
19 Dec 10.8 17:28:29 10° WSW 17:54:37 65° NNW 18:14:41 10° NE visible
19 Dec 10.3 20:08:51 10° WNW 20:29:18 35° NNW 20:33:08 32° N visible
19 Dec 11.3 22:49:57 10° NW 22:50:25 11° NW 22:50:25 11° NW visible
20 Dec 10.5 18:49:30 10° W 19:13:40 44° NNW 19:25:55 22° NE visible
20 Dec 10.7 21:32:22 10° WNW 21:43:12 26° NNW 21:43:12 26° NNW visible
21 Dec 10.9 17:31:53 10° WSW 17:57:31 57° NNW 18:17:36 10° NE visible
21 Dec 10.4 20:13:05 10° WNW 20:33:07 34° N 20:35:59 32° N visible
21 Dec 11.4 22:52:46 10° NW 22:53:16 11° NW 22:53:16 11° NW visible
22 Dec 10.5 18:53:37 10° W 19:17:12 41° NNW 19:28:45 22° NE visible
22 Dec 10.7 21:35:48 10° NW 21:46:02 26° NNW 21:46:02 26° NNW visible
